TimeCDT,TemperatureF,Dew PointF,Humidity,Sea Level PressureIn,VisibilityMPH,Wind Direction,Wind SpeedMPH,Gust SpeedMPH,PrecipitationIn,Events,Conditions,WindDirDegrees,DateUTC
12:15 AM,36.1,34.0,92,30.23,4.0,North,13.8,18.4,0.02,Rain,Rain,350,2013-05-03 05:15:00
12:35 AM,36.5,34.7,93,30.21,2.5,North,15.0,23.0,0.04,Rain,Light Rain,350,2013-05-03 05:35:00
12:55 AM,36.5,35.1,95,30.20,10.0,North,12.7,-,0.05,Rain,Light Rain,350,2013-05-03 05:55:00
1:15 AM,35.8,34.2,94,30.20,10.0,North,11.5,-,N/A,Rain,Rain,360,2013-05-03 06:15:00
1:35 AM,35.6,34.0,94,30.20,10.0,NNW,12.7,18.4,N/A,Rain,Light Rain,340,2013-05-03 06:35:00
1:55 AM,35.6,34.0,94,30.19,3.0,NNW,9.2,-,0.01,Rain,Rain,340,2013-05-03 06:55:00
2:15 AM,35.1,33.8,95,30.19,10.0,NNW,11.5,-,N/A,,Overcast,330,2013-05-03 07:15:00
2:35 AM,35.1,33.8,95,30.16,10.0,North,16.1,-,N/A,Rain,Rain,350,2013-05-03 07:35:00
2:55 AM,35.1,33.6,94,30.15,10.0,North,13.8,20.7,N/A,,Light Drizzle,350,2013-05-03 07:55:00
3:15 AM,35.1,34.0,96,30.15,10.0,North,11.5,17.3,N/A,,Light Drizzle,350,2013-05-03 08:15:00
3:35 AM,35.6,34.5,96,30.16,10.0,North,9.2,-,N/A,,Overcast,350,2013-05-03 08:35:00
3:55 AM,36.0,34.9,96,30.15,10.0,North,13.8,18.4,N/A,,Overcast,360,2013-05-03 08:55:00
4:15 AM,36.5,35.1,95,30.15,10.0,North,11.5,19.6,N/A,,Overcast,360,2013-05-03 09:15:00
4:35 AM,36.5,35.1,95,30.15,10.0,North,8.1,-,N/A,,Overcast,360,2013-05-03 09:35:00
4:55 AM,36.7,34.9,93,30.14,10.0,NNE,15.0,21.9,N/A,Rain,Rain,20,2013-05-03 09:55:00
5:15 AM,36.5,34.7,93,30.14,10.0,NNE,11.5,21.9,N/A,,Overcast,20,2013-05-03 10:15:00
5:35 AM,36.1,34.7,94,30.13,10.0,NNE,13.8,21.9,N/A,,Overcast,20,2013-05-03 10:35:00
5:55 AM,36.0,34.7,95,30.14,10.0,NNE,11.5,19.6,N/A,,Overcast,20,2013-05-03 10:55:00
6:15 AM,36.0,34.9,96,30.14,10.0,NNE,11.5,18.4,N/A,,Light Drizzle,20,2013-05-03 11:15:00
6:35 AM,36.0,35.1,97,30.14,7.0,NNE,10.4,20.7,N/A,,Overcast,20,2013-05-03 11:35:00
6:55 AM,36.0,35.6,99,30.16,7.0,NNE,9.2,-,N/A,,Drizzle,20,2013-05-03 11:55:00
7:15 AM,36.0,35.6,99,30.14,4.0,NNE,10.4,16.1,0.01,Rain,Rain,20,2013-05-03 12:15:00
7:35 AM,36.0,35.6,99,30.13,2.0,North,11.5,17.3,0.07,Rain,Light Rain,10,2013-05-03 12:35:00
7:55 AM,36.0,35.6,99,30.13,2.5,NNE,10.4,19.6,0.12,Rain,Light Rain,30,2013-05-03 12:55:00
8:15 AM,36.0,35.6,99,30.12,10.0,NNE,11.5,-,0.01,Rain,Light Rain,20,2013-05-03 13:15:00
8:35 AM,36.1,35.8,99,30.12,10.0,NNE,9.2,20.7,0.01,Rain,Light Rain,20,2013-05-03 13:35:00
8:55 AM,36.5,36.1,99,30.12,4.0,NNE,8.1,16.1,0.02,Rain,Rain,20,2013-05-03 13:55:00
9:15 AM,37.0,36.5,98,30.10,10.0,NNE,15.0,21.9,N/A,Rain,Light Rain,20,2013-05-03 14:15:00
9:35 AM,37.4,36.7,97,30.10,10.0,NNE,13.8,19.6,N/A,,Overcast,20,2013-05-03 14:35:00
9:55 AM,37.8,36.5,95,30.10,10.0,NNE,11.5,-,N/A,,Overcast,30,2013-05-03 14:55:00
10:15 AM,38.7,37.4,95,30.10,10.0,NNE,12.7,17.3,N/A,,Overcast,20,2013-05-03 15:15:00
10:35 AM,38.5,37.4,96,30.10,10.0,NNE,10.4,-,N/A,,Light Drizzle,30,2013-05-03 15:35:00
10:55 AM,39.0,37.6,95,30.11,10.0,NNE,10.4,-,N/A,,Light Drizzle,30,2013-05-03 15:55:00
11:15 AM,39.4,38.1,95,30.11,10.0,NNE,6.9,-,N/A,Rain,Light Rain,20,2013-05-03 16:15:00
11:35 AM,40.1,38.8,95,30.09,10.0,NNE,11.5,-,N/A,,Light Drizzle,30,2013-05-03 16:35:00
11:55 AM,40.3,39.2,96,30.10,10.0,NNE,9.2,-,N/A,Rain,Rain,30,2013-05-03 16:55:00
12:15 PM,41.0,39.9,96,30.07,10.0,North,11.5,16.1,0.01,Rain,Light Rain,10,2013-05-03 17:15:00
12:35 PM,41.4,40.1,95,30.09,7.0,NE,9.2,-,0.02,Rain,Rain,40,2013-05-03 17:35:00
12:55 PM,42.1,41.0,96,30.07,10.0,NNE,11.5,-,0.02,,Drizzle,30,2013-05-03 17:55:00
1:15 PM,42.6,41.2,95,30.08,10.0,NE,8.1,-,N/A,,Light Drizzle,40,2013-05-03 18:15:00
1:35 PM,43.2,41.4,93,30.07,10.0,NNE,8.1,-,N/A,,Light Drizzle,30,2013-05-03 18:35:00
1:55 PM,43.5,41.7,93,30.07,10.0,NNE,10.4,-,N/A,,Light Drizzle,20,2013-05-03 18:55:00
2:15 PM,43.9,42.1,93,30.07,10.0,NNE,9.2,-,N/A,,Drizzle,20,2013-05-03 19:15:00
2:35 PM,44.1,42.3,93,30.06,10.0,NNE,10.4,16.1,N/A,,Light Drizzle,30,2013-05-03 19:35:00
2:55 PM,44.6,43.2,95,30.06,10.0,NNE,9.2,-,N/A,Rain,Rain,30,2013-05-03 19:55:00
3:15 PM,44.8,43.2,94,30.06,7.0,NNE,11.5,-,0.01,Rain,Rain,30,2013-05-03 20:15:00
3:35 PM,45.0,43.7,95,30.05,7.0,NNE,10.4,16.1,0.01,,Drizzle,30,2013-05-03 20:35:00
3:55 PM,45.3,43.9,95,30.05,7.0,NE,10.4,-,0.01,Rain,Light Rain,40,2013-05-03 20:55:00
4:15 PM,45.5,44.2,95,30.04,7.0,NNE,9.2,-,N/A,Rain,Light Rain,30,2013-05-03 21:15:00
4:35 PM,45.5,44.6,97,30.03,7.0,NE,11.5,17.3,0.01,Rain,Rain,40,2013-05-03 21:35:00
4:55 PM,46.0,45.0,96,30.03,10.0,NE,10.4,-,0.01,,Overcast,40,2013-05-03 21:55:00
5:15 PM,46.4,45.0,95,30.02,10.0,NNE,11.5,16.1,N/A,,Drizzle,30,2013-05-03 22:15:00
5:35 PM,46.4,45.5,97,30.02,10.0,NNE,11.5,-,N/A,,Light Drizzle,30,2013-05-03 22:35:00
5:55 PM,46.6,45.7,97,30.02,7.0,NNE,11.5,16.1,N/A,,Light Drizzle,30,2013-05-03 22:55:00
6:15 PM,46.6,45.7,97,30.02,7.0,NNE,12.7,17.3,N/A,Rain,Rain,30,2013-05-03 23:15:00
6:35 PM,46.6,45.9,97,30.02,5.0,NNE,9.2,-,0.01,Rain,Rain,20,2013-05-03 23:35:00
6:55 PM,46.6,46.0,98,30.03,5.0,NE,10.4,-,0.01,Rain,Light Rain,40,2013-05-03 23:55:00
7:15 PM,46.6,46.0,98,30.03,7.0,NE,8.1,-,N/A,Rain,Light Rain,40,2013-05-04 00:15:00
7:35 PM,46.8,46.4,99,30.03,7.0,NE,9.2,-,N/A,,Overcast,40,2013-05-04 00:35:00
7:55 PM,46.9,46.6,99,30.04,5.0,NE,5.8,-,N/A,,Overcast,40,2013-05-04 00:55:00
8:15 PM,46.9,46.6,99,30.04,7.0,NNE,6.9,-,N/A,,Overcast,30,2013-05-04 01:15:00
8:35 PM,46.9,46.4,98,30.03,7.0,NNE,6.9,-,N/A,,Overcast,30,2013-05-04 01:35:00
8:55 PM,47.3,46.4,97,30.03,10.0,NNE,6.9,-,N/A,,Overcast,30,2013-05-04 01:55:00
9:15 PM,47.3,46.2,96,30.03,10.0,NNE,6.9,-,N/A,,Overcast,30,2013-05-04 02:15:00
9:35 PM,47.7,46.4,95,30.02,10.0,NNE,9.2,-,N/A,,Overcast,30,2013-05-04 02:35:00
9:55 PM,47.8,46.4,95,30.03,10.0,NE,8.1,-,N/A,,Overcast,40,2013-05-04 02:55:00
10:15 PM,48.4,46.6,93,30.03,10.0,NE,6.9,-,N/A,,Overcast,40,2013-05-04 03:15:00
10:35 PM,48.4,46.4,93,30.03,10.0,NE,6.9,-,N/A,,Overcast,40,2013-05-04 03:35:00
10:55 PM,48.4,46.4,93,30.03,10.0,NE,5.8,-,N/A,,Mostly Cloudy,40,2013-05-04 03:55:00
11:15 PM,48.2,46.4,93,30.02,10.0,NE,6.9,-,N/A,,Scattered Clouds,40,2013-05-04 04:15:00
11:35 PM,48.4,46.4,93,30.02,10.0,NNE,6.9,-,N/A,,Scattered Clouds,30,2013-05-04 04:35:00
11:55 PM,48.2,45.7,91,30.02,10.0,North,3.5,-,N/A,,Mostly Cloudy,10,2013-05-04 04:55:00